Regional Weather Roundup
Issued by NWS

Home | Current Version | Previous Version | Graphics & Text | Print | Product List | Glossary On
Versions: 1 2 3 4 5 6 7 8 9 10 11 12 13 14 15 16 17 18 19 20 21 22 23 24 25 26 27 28 29 30 31 32 33 34 35 36 37 38 39 40 41 42 43 44 45 46 47 48 49 50
000
ASUS43 KLSX 201407
RWRMO

WEATHER SUMMARY FOR MISSOURI
NATIONAL WEATHER SERVICE SPRINGFIELD MO
900 AM CDT MON OCT 20 2014

NOTE: "FAIR" INDICATES FEW OR NO CLOUDS BELOW 12,000 FEET WITH NO
       SIGNIFICANT WEATHER AND/OR OBSTRUCTIONS TO VISIBILITY.
       CURRENT SKY AND/OR WEATHER CONDITIONS ARE NOT AVAILABLE FOR
       CHILLICOTHE AND FARMINGTON.

MOZ001>031-035>038-043-044-053-054-201500-
...NORTHERN AND WESTERN MISSOURI...

CITY           SKY/WX    TMP DP  RH WIND       PRES   REMARKS
KANSAS CTY INT MOSUNNY   56  52  86 NW6       30.04R
KANSAS C DTWN  SUNNY     57  53  86 CALM      30.04R
LEE`S SUMMIT   SUNNY     56  53  90 W5        30.04R
ST JOSEPH      SUNNY     49  48  97 N3        30.06R
CHILLICOTHE      N/A     57  49  74 CALM      30.04R
KIRKSVILLE     SUNNY     55  47  74 N10G18    30.02R

$$
MOZ066>068-077>081-088>096-101>105-201500-
...SOUTHWEST MISSOURI...

CITY           SKY/WX    TMP DP  RH WIND       PRES   REMARKS
SPRINGFIELD    PTSUNNY   59  52  77 SW6       30.06R
JOPLIN         CLOUDY    60  52  74 SW9       30.07R

$$
MOZ032>034-039>042-045>050-055>058-069>072-201500-
...CENTRAL MISSOURI...

CITY           SKY/WX    TMP DP  RH WIND       PRES   REMARKS
COLUMBIA       SUNNY     57  53  86 W9        30.02R
JEFFERSON CITY SUNNY     55  51  86 CALM      30.03R
ROLLA          MOSUNNY   56  50  80 SW8       30.02R
SEDALIA        SUNNY     59  53  80 W7        30.04R
WHITEMAN AFB   SUNNY     57  53  86 W8        30.03R
OSAGE BEACH    CLOUDY    59  52  77 W6        30.04R

$$
MOZ051-052-059>065-201500-
...EAST CENTRAL MISSOURI...

CITY           SKY/WX    TMP DP  RH WIND       PRES   REMARKS
ST LOUIS INTL  MOSUNNY   60  51  72 W9        29.99R
SPIRIT OF STL  SUNNY     58  51  78 W8        29.99R
ST CHARLES     SUNNY     57  51  80 W8        29.97R

$$
MOZ072>076-082>087-097>100-106>115-201500-
...SOUTH CENTRAL AND SOUTHEAST MISSOURI...

CITY           SKY/WX    TMP DP  RH WIND       PRES   REMARKS
CAPE GIRARDEAU PTSUNNY   56  49  77 SW5       30.04S
FARMINGTON     MOSUNNY   57  52  82 W6        30.03S
POPLAR BLUFF   PTSUNNY   56  49  77 SW7       30.05R
WEST PLAINS    SUNNY     55  49  80 W8        30.07R

$$



USA.gov is the U.S. government's official web portal to all federal, state and local government web resources and services.